QPF
0.00 0.00 0.00 0.00 0.00 0.00 0.00 0.00 0.00 0.00 0.00 0.00 0.00 0.00 0.00 0.00 0.00 0.00 0.00 0.00 0.00 0.00 0.00 0.00 0.00 0.00 0.00 0.00 0.00 0.00 0.00 0.00 0.00 0.00 0.00 0.00 0.00 0.00 0.00 0.00 0.00 0.00 0.00 0.00 0.00
0.00 0.00 0.00 0.00 0.00 0.00 0.00 0.00 0.00 0.00 0.00 0.00 0.00 0.00 0.00 0.00 0.00 0.00 0.00 0.00 0.00 0.00 0.00 0.00 0.00 0.00 0.00 0.00 0.00 0.00 0.00 0.00 0.00 0.00 0.00 0.00 0.00 0.00 0.00 0.00 0.00 0.00 0.00 0.00 0.00
0.00 0.00 0.00 0.00 0.00 0.00 0.00 0.00 0.00 0.00 0.00 0.00 0.00 0.00 0.00 0.00 0.00 0.00 0.00 0.00 0.00 0.00 0.00 0.00 0.00 0.00 0.00 0.00 0.00 0.00 0.00 0.00 0.00 0.00 0.00 0.00 0.00 0.00 0.00 0.00 0.00 0.00 0.00 0.00 0.00
0.00 0.00 0.00 0.00 0.00 0.00 0.00 0.00 0.00 0.00 0.00 0.00 0.00 0.00 0.00 0.00 0.00 0.00 0.00 0.00 0.00 0.00 0.00 0.00 0.00 0.00 0.00 0.00 0.00 0.00 0.00 0.00 0.00 0.00 0.00 0.00 0.00 0.00 0.00 0.00 0.00 0.00 0.00 0.00 0.00
0.00 0.00 0.00 0.00 0.00 0.00 0.00 0.00 0.00 0.00 0.00 0.00 0.00 0.00 0.00 0.00 0.00 0.00 0.00 0.00 0.00 0.00 0.00 0.00 0.00 0.00 0.00 0.00 0.00 0.00 0.00 0.00 0.00 0.00 0.00 0.00 0.00 0.00 0.00 0.00 0.00 0.00 0.00 0.00 0.00
0.00 0.00 0.00 0.00 0.00 0.00 0.00 0.00 0.00 0.00 0.00 0.00 0.00 0.00 0.00 0.00 0.00 0.00 0.00 0.00 0.00 0.00 0.00 0.00 0.00 0.00 0.00 0.00 0.00 0.00 0.00 0.00 0.00 0.00 0.00 0.00 0.00 0.00 0.00 0.00 0.00 0.00 0.00 0.00 0.00
0.00 0.00 0.00 0.00 0.00 0.00 0.00 0.00 0.00 0.00 0.00 0.00 0.00 0.00 0.00 0.00 0.00 0.00 0.00 0.00 0.00 0.00 0.00 0.00 0.00 0.00 0.00 0.00 0.00 0.00 0.00 0.00 0.00 0.00 0.00 0.00 0.00 0.00 0.00 0.00 0.00 0.00 0.00 0.00 0.00
0.00 0.00 0.00 0.00 0.00 0.00 0.00 0.00 0.00 0.00 0.00 0.00 0.00 0.00 0.00 0.00 0.00 0.00 0.00 0.00 0.00 0.00 0.00 0.00 0.00 0.00 0.00 0.00 0.00 0.00 0.00 0.00 0.00 0.00 0.00 0.00 0.00 0.00 0.00 0.00 0.00 0.00 0.00 0.00 0.00
0.00 0.00 0.00 0.00 0.00 0.00 0.00 0.00 0.00 0.00 0.00 0.00 0.00 0.00 0.00 0.00 0.00 0.00 0.00 0.00 0.00 0.00 0.00 0.00 0.00 0.00 0.00 0.00 0.00 0.00 0.00 0.00 0.00 0.00 0.00 0.00 0.00 0.00 0.00 0.00 0.00 0.00 0.00 0.00 0.00
0.00 0.00 0.00 0.00 0.00 0.00 0.00 0.00 0.00 0.00 0.00 0.00 0.00 0.00 0.00 0.00 0.00 0.00 0.00 0.00 0.00 0.00 0.00 0.00 0.00 0.00 0.00 0.00 0.00 0.00 0.00 0.00 0.00 0.00 0.00 0.00 0.00 0.00 0.00 0.00 0.00 0.00 0.00 0.00 0.00
0.00 0.00 0.00 0.00 0.00 0.00 0.00 0.00 0.00 0.00 0.00 0.00 0.00 0.00 0.00 0.00 0.00 0.00 0.00 0.00 0.00 0.00 0.00 0.00 0.00 0.00 0.00 0.00 0.00 0.00 0.00 0.00 0.00 0.00 0.00 0.00 0.00 0.00 0.00 0.00 0.00 0.00 0.00 0.00 0.00
0.00 0.00 0.00 0.00 0.00 0.00 0.00 0.00 0.00 0.00 0.00 0.00 0.00 0.00 0.00 0.00 0.00 0.00 0.00 0.00 0.00 0.00 0.00 0.00 0.00 0.00 0.00 0.00 0.00 0.00 0.00 0.00 0.00 0.00 0.00 0.00 0.00 0.00 0.00 0.00 0.00 0.00 0.00 0.00 0.00
0.00 0.00 0.00 0.00 0.00 0.00 0.00 0.00 0.00 0.00 0.00 0.00 0.00 0.00 0.00 0.00 0.00 0.00 0.00 0.00 0.00 0.00 0.00 0.00 0.00 0.00 0.00 0.00 0.00 0.00 0.00 0.00 0.00 0.00 0.00 0.00 0.00 0.00 0.00 0.00 0.00 0.00 0.00 0.00 0.00
0.00 0.00 0.00 0.00 0.00 0.00 0.00 0.00 0.00 0.00 0.00 0.00 0.00 0.00 0.00 0.00 0.00 0.00 0.00 0.00 0.00 0.00 0.00 0.00 0.00 0.00 0.00 0.00 0.00 0.00 0.00 0.00 0.00 0.00 0.00 0.00 0.00 0.00 0.00 0.00 0.00 0.00 0.00 0.00 0.00
0.00 0.00 0.00 0.00 0.00 0.00 0.00 0.00 0.00 0.00 0.00 0.00 0.00 0.00 0.00 0.00 0.00 0.00 0.01 0.00 0.00 0.00 0.00 0.00 0.00 0.00 0.00 0.00 0.00 0.00 0.00 0.00 0.00 0.00 0.00 0.00 0.00 0.00 0.00 0.00 0.00 0.00 0.00 0.00 0.00
0.00 0.00 0.00 0.00 0.00 0.00 0.00 0.00 0.00 0.00 0.00 0.00 0.00 0.00 0.00 0.00 0.00 0.00 0.01 0.00 0.00 0.00 0.00 0.00 0.00 0.00 0.00 0.00 0.00 0.00 0.00 0.00 0.00 0.00 0.00 0.00 0.00 0.00 0.00 0.00 0.00 0.00 0.00 0.00 0.00
0.00 0.00 0.00 0.00 0.00 0.00 0.00 0.00 0.00 0.00 0.00 0.00 0.00 0.00 0.00 0.00 0.00 0.00 0.00 0.00 0.01 0.01 0.00 0.00 0.00 0.00 0.00 0.00 0.00 0.00 0.00 0.00 0.00 0.00 0.00 0.00 0.00 0.00 0.00 0.00 0.00 0.00 0.00 0.00 0.00
0.00 0.00 0.00 0.00 0.00 0.00 0.00 0.00 0.00 0.00 0.00 0.00 0.00 0.00 0.00 0.00 0.00 0.00 0.00 0.00 0.00 0.01 0.01 0.00 0.00 0.00 0.00 0.00 0.00 0.00 0.00 0.00 0.00 0.00 0.00 0.00 0.00 0.00 0.00 0.00 0.00 0.00 0.00 0.00 0.00
0.00 0.00 0.00 0.00 0.00 0.00 0.00 0.00 0.00 0.00 0.00 0.00 0.00 0.00 0.00 0.00 0.00 0.00 0.00 0.00 0.00 0.01 0.01 0.01 0.00 0.00 0.00 0.00 0.00 0.00 0.00 0.00 0.00 0.00 0.00 0.00 0.00 0.00 0.00 0.00 0.00 0.00 0.00 0.00 0.00
0.00 0.00 0.00 0.00 0.00 0.00 0.00 0.00 0.00 0.00 0.00 0.00 0.00 0.00 0.00 0.00 0.00 0.00 0.00 0.00 0.00 0.00 0.00 0.00 0.00 0.00 0.00 0.00 0.00 0.00 0.00 0.00 0.00 0.00 0.00 0.00 0.00 0.00 0.00 0.00 0.00 0.00 0.00 0.00 0.00
0.00 0.00 0.00 0.00 0.00 0.00 0.00 0.00 0.00 0.00 0.00 0.00 0.01 0.01 0.01 0.00 0.00 0.00 0.00 0.00 0.00 0.00 0.00 0.00 0.00 0.00 0.00 0.00 0.00 0.00 0.00 0.00 0.00 0.00 0.00 0.00 0.00 0.00 0.00 0.00 0.00 0.00 0.00 0.00 0.00
0.00 0.00 0.00 0.00 0.00 0.00 0.00 0.00 0.00 0.00 0.00 0.02 0.01 0.01 0.01 0.00 0.00 0.01 0.01 0.00 0.00 0.00 0.00 0.00 0.00 0.00 0.00 0.00 0.00 0.00 0.00 0.00 0.00 0.00 0.00 0.00 0.00 0.00 0.00 0.00 0.00 0.00 0.00 0.00 0.00
0.00 0.00 0.00 0.00 0.00 0.00 0.00 0.00 0.00 0.00 0.00 0.01 0.00 0.00 0.00 0.00 0.00 0.00 0.00 0.00 0.00 0.00 0.00 0.01 0.00 0.00 0.00 0.00 0.00 0.00 0.00 0.00 0.00 0.00 0.00 0.00 0.00 0.00 0.00 0.00 0.00 0.00 0.00 0.00 0.00
0.00 0.00 0.00 0.00 0.00 0.00 0.00 0.00 0.00 0.00 0.00 0.00 0.00 0.00 0.00 0.00 0.00 0.00 0.00 0.00 0.00 0.00 0.02 0.02 0.00 0.00 0.00 0.00 0.00 0.00 0.00 0.00 0.00 0.00 0.00 0.00 0.00 0.00 0.00 0.00 0.00 0.00 0.00 0.00 0.00
0.00 0.00 0.00 0.00 0.00 0.00 0.00 0.00 0.00 0.01 0.00 0.00 0.00 0.00 0.00 0.00 0.00 0.00 0.00 0.00 0.00 0.00 0.01 0.01 0.00 0.00 0.00 0.00 0.00 0.00 0.00 0.00 0.00 0.00 0.00 0.00 0.00 0.00 0.00 0.00 0.00 0.00 0.00 0.00 0.00
0.00 0.00 0.00 0.00 0.00 0.00 0.00 0.00 0.01 0.01 0.01 0.00 0.00 0.00 0.00 0.00 0.00 0.00 0.00 0.00 0.00 0.00 0.00 0.00 0.00 0.00 0.00 0.00 0.00 0.00 0.00 0.00 0.00 0.00 0.00 0.00 0.00 0.00 0.00 0.00 0.00 0.00 0.00 0.00 0.00
0.00 0.00 0.01 0.00 0.00 0.00 0.00 0.00 0.01 0.01 0.00 0.01 0.00 0.00 0.00 0.00 0.00 0.00 0.00 0.00 0.00 0.00 0.00 0.00 0.00 0.00 0.00 0.00 0.01 0.00 0.00 0.00 0.00 0.00 0.00 0.00 0.00 0.00 0.00 0.00 0.00 0.00 0.00 0.00 0.00
MSLP
1021.08 1020.72 1020.36 1019.98 1019.64 1019.20 1018.72 1018.23 1017.79 1017.54 1017.18 1016.81 1016.53 1015.96 1015.46 1015.27 1014.32 1013.71 1012.73 1009.83 1009.47 1008.86 1008.94 1009.32 1009.24 1009.36 1009.60 1009.60 1009.33 1009.58 1010.33 1010.27 1008.52 1007.40 1005.98 1004.73 1004.05 1003.46 1002.97 1002.86 1002.28 1002.46 1002.08 1001.62 1001.60
1021.04 1020.60 1020.23 1019.88 1019.47 1019.09 1018.69 1018.24 1017.81 1017.29 1016.96 1016.68 1016.23 1015.95 1015.63 1015.01 1014.03 1012.76 1009.63 1008.98 1009.15 1009.29 1009.14 1008.90 1008.90 1009.14 1009.59 1009.46 1009.34 1009.43 1009.37 1008.46 1007.29 1006.64 1005.64 1004.74 1004.20 1003.94 1003.52 1003.39 1002.77 1002.56 1002.13 1002.06 1002.10
1021.00 1020.59 1020.18 1019.75 1019.28 1018.85 1018.47 1018.12 1017.75 1017.28 1016.81 1016.49 1016.29 1015.96 1015.42 1014.94 1014.02 1010.13 1008.75 1008.72 1009.06 1009.37 1009.26 1008.78 1008.64 1008.62 1009.27 1009.15 1008.95 1008.61 1007.73 1007.08 1006.10 1006.03 1005.65 1005.04 1004.89 1004.20 1003.97 1003.35 1002.75 1002.60 1002.31 1002.07 1002.25
1020.98 1020.55 1020.09 1019.62 1019.16 1018.66 1018.15 1017.65 1017.23 1016.87 1016.59 1016.36 1016.02 1015.67 1015.24 1015.06 1013.17 1008.85 1008.28 1008.76 1008.77 1008.28 1009.00 1008.58 1008.46 1008.70 1008.84 1008.28 1007.75 1007.75 1007.17 1006.77 1005.57 1005.62 1005.55 1004.68 1004.62 1004.20 1003.79 1003.39 1002.25 1002.32 1002.38 1002.58 1002.54
1021.01 1020.49 1019.97 1019.41 1018.85 1018.29 1017.77 1017.26 1016.73 1016.26 1016.08 1015.98 1015.82 1015.76 1015.59 1015.05 1012.93 1008.80 1009.19 1009.04 1008.81 1008.16 1008.43 1008.30 1007.97 1007.93 1007.95 1007.47 1007.59 1007.17 1006.97 1006.55 1005.65 1005.58 1005.23 1004.97 1004.10 1004.05 1003.30 1003.18 1002.96 1002.69 1002.40 1002.35 1002.18
1020.79 1020.25 1019.68 1019.09 1018.50 1017.88 1017.22 1016.61 1016.14 1015.88 1015.56 1015.28 1015.24 1015.26 1015.29 1014.93 1010.66 1009.84 1009.94 1009.51 1009.24 1008.89 1008.46 1008.14 1007.37 1007.05 1007.49 1007.37 1007.40 1006.66 1006.67 1006.45 1005.98 1005.27 1005.21 1005.19 1003.95 1003.83 1002.97 1002.31 1002.31 1002.34 1002.02 1001.79 1001.87
1020.66 1020.08 1019.42 1018.79 1018.14 1017.41 1016.61 1015.86 1015.35 1015.19 1014.79 1014.59 1014.63 1014.72 1014.45 1012.62 1010.11 1009.80 1010.31 1010.21 1009.79 1009.67 1009.00 1007.85 1007.34 1006.98 1007.10 1007.42 1007.04 1006.72 1006.85 1006.34 1005.79 1005.50 1004.90 1005.05 1003.38 1002.41 1002.58 1002.27 1002.12 1001.45 1001.32 1001.18 1001.01
1020.62 1020.08 1019.42 1018.77 1018.09 1017.37 1016.33 1015.41 1014.56 1014.47 1013.87 1013.82 1014.16 1014.29 1013.24 1010.19 1010.00 1009.93 1009.87 1008.78 1008.53 1008.56 1008.65 1007.72 1007.50 1007.27 1007.39 1007.22 1007.09 1007.08 1006.82 1006.10 1005.02 1005.52 1004.99 1005.09 1000.70 1001.91 1001.85 1001.95 1001.50 1001.11 1000.85 1000.81 1000.31
1020.61 1020.02 1019.33 1018.57 1017.76 1016.95 1016.02 1014.89 1013.84 1013.55 1013.50 1013.76 1014.14 1014.08 1012.26 1010.14 1009.74 1008.81 1008.85 1008.63 1007.89 1007.47 1007.54 1006.96 1007.13 1007.23 1007.47 1007.77 1008.15 1007.32 1005.83 1005.19 1005.35 1004.38 1004.54 1004.45 1000.13 1002.08 1001.91 1001.88 1001.34 1000.99 1000.58 1000.38 1000.03
1020.38 1019.72 1019.08 1018.38 1017.37 1016.41 1015.37 1014.37 1013.52 1013.80 1013.66 1013.56 1013.28 1013.66 1011.29 1009.69 1008.47 1007.84 1007.99 1008.45 1007.88 1007.23 1007.20 1006.89 1007.15 1007.29 1007.60 1007.77 1006.57 1006.52 1006.03 1005.34 1004.84 1004.39 1004.28 1003.85 1001.08 1002.04 1001.97 1001.95 1001.27 1000.76 1000.42 1000.14 999.88
1020.04 1019.42 1018.59 1017.82 1017.15 1016.57 1015.75 1014.99 1014.64 1014.08 1013.87 1013.53 1012.44 1012.24 1010.47 1008.67 1008.22 1006.59 1007.38 1007.70 1007.27 1007.05 1006.79 1006.71 1007.16 1006.31 1005.78 1006.13 1006.40 1006.51 1006.44 1006.38 1005.14 1004.65 1004.43 1003.55 1002.08 1001.89 1001.91 1001.66 1001.02 1000.35 1000.07 999.59 999.33
1019.62 1019.06 1018.27 1017.38 1016.73 1016.34 1016.25 1015.86 1015.27 1015.37 1014.08 1012.46 1011.53 1010.92 1009.36 1008.43 1007.81 1006.26 1006.56 1007.62 1007.31 1007.06 1007.05 1007.14 1005.82 1006.21 1006.49 1006.73 1006.88 1006.86 1006.90 1006.74 1006.06 1005.20 1004.95 1004.14 1002.78 1002.35 1001.81 1000.96 1000.34 999.88 999.64 999.19 999.00
1019.47 1018.72 1018.11 1017.28 1016.52 1016.33 1016.25 1015.39 1014.86 1015.02 1014.89 1012.22 1010.72 1009.28 1007.94 1007.79 1007.34 1006.35 1006.85 1006.84 1007.65 1007.59 1007.31 1007.01 1006.32 1006.30 1006.37 1006.58 1006.58 1006.75 1006.88 1007.04 1006.87 1006.24 1005.21 1005.12 1003.04 1002.12 1000.91 1000.35 999.76 998.97 998.74 998.45 998.82
1019.34 1018.60 1017.91 1017.19 1016.44 1016.72 1015.83 1014.76 1014.77 1014.91 1014.68 1012.06 1009.96 1008.43 1007.66 1007.15 1006.56 1005.78 1006.15 1006.86 1007.38 1007.44 1007.34 1007.05 1006.31 1006.16 1006.32 1006.41 1006.71 1006.72 1007.02 1006.93 1007.08 1007.16 1006.57 1005.79 1002.84 1002.17 1000.35 999.54 999.20 998.65 998.15 998.12 998.10
1019.00 1018.42 1017.88 1017.60 1017.26 1016.86 1015.23 1014.87 1014.49 1014.78 1014.11 1011.11 1009.40 1007.93 1007.44 1007.37 1005.96 1006.13 1006.23 1006.52 1006.75 1006.95 1006.93 1006.80 1006.28 1006.07 1006.18 1006.19 1006.41 1006.40 1007.17 1007.17 1007.44 1007.50 1007.21 1006.21 1005.47 998.49 1000.05 998.36 998.06 997.83 997.39 997.35 996.91
1018.47 1017.83 1017.45 1017.17 1017.29 1015.46 1015.08 1014.85 1014.68 1015.27 1013.56 1011.51 1010.08 1009.19 1008.32 1007.38 1007.00 1007.44 1006.54 1005.75 1005.90 1006.88 1006.81 1006.73 1006.03 1006.09 1006.05 1006.05 1006.25 1006.43 1006.72 1007.19 1007.63 1008.09 1007.10 1005.80 1005.56 998.64 998.97 997.16 996.97 996.56 996.68 996.51 996.71
1017.65 1016.93 1016.76 1016.52 1015.73 1014.95 1014.93 1015.28 1015.56 1015.11 1013.89 1012.88 1011.42 1010.25 1009.41 1008.53 1007.73 1007.53 1007.15 1006.47 1006.87 1007.19 1007.12 1006.83 1006.37 1005.88 1005.88 1006.08 1006.13 1006.62 1007.27 1007.87 1008.58 1008.26 1006.01 1004.79 1004.78 998.70 997.12 996.58 996.24 996.09 996.30 996.32 996.16
1016.82 1016.02 1015.91 1015.50 1015.18 1015.13 1015.53 1015.93 1015.96 1015.35 1014.38 1013.44 1012.24 1010.95 1010.34 1009.56 1008.88 1008.10 1007.82 1007.74 1007.92 1007.97 1007.70 1007.22 1006.57 1005.68 1005.49 1005.61 1005.97 1006.51 1007.27 1007.31 1007.50 1007.01 1006.13 1005.06 1002.09 997.54 997.40 996.03 995.61 995.96 996.10 995.73 995.82
1016.47 1016.22 1016.00 1014.92 1015.04 1015.47 1016.38 1016.59 1016.34 1015.56 1014.62 1013.61 1012.55 1011.71 1011.22 1010.70 1010.37 1009.42 1008.89 1008.58 1008.27 1008.31 1008.23 1007.49 1006.93 1005.93 1005.74 1005.62 1005.85 1006.22 1006.86 1006.95 1007.37 1006.84 1006.23 1003.52 1000.05 998.05 996.61 996.05 995.53 995.69 995.48 995.48 995.70
1017.59 1017.08 1015.86 1014.85 1014.88 1015.85 1016.98 1017.02 1016.06 1015.28 1014.40 1013.72 1013.35 1012.66 1012.32 1011.64 1011.26 1010.68 1009.89 1009.53 1009.23 1008.94 1008.75 1008.42 1007.97 1007.12 1006.42 1006.15 1005.78 1005.78 1006.25 1007.15 1007.38 1006.86 1005.69 1002.66 1000.37 997.38 996.22 996.16 995.43 995.35 995.99 995.57 995.07
1017.64 1017.12 1015.45 1015.03 1015.12 1016.53 1017.69 1017.37 1016.00 1014.91 1014.29 1013.88 1013.67 1013.33 1012.96 1012.74 1012.24 1011.40 1010.76 1010.14 1010.01 1009.68 1009.52 1009.37 1009.20 1008.49 1007.60 1006.80 1006.29 1006.41 1006.35 1006.58 1006.58 1006.34 1004.85 1002.87 999.11 996.93 996.75 996.08 996.28 996.05 995.65 995.23 994.48
1018.73 1017.81 1015.84 1015.41 1016.59 1017.67 1017.98 1017.33 1016.19 1014.85 1014.14 1013.87 1013.86 1013.52 1013.35 1012.92 1012.51 1011.78 1011.05 1010.53 1010.15 1010.09 1010.16 1010.07 1010.06 1009.54 1008.39 1007.03 1006.50 1006.68 1006.66 1006.56 1006.69 1006.01 1004.51 1003.21 998.46 996.17 996.42 996.38 996.38 996.10 995.71 995.45 995.43
1019.73 1018.60 1016.15 1015.91 1017.88 1018.56 1017.93 1017.04 1016.19 1015.06 1014.27 1013.94 1013.88 1013.56 1013.51 1013.33 1013.05 1011.97 1010.98 1010.11 1010.03 1010.05 1010.18 1010.54 1010.61 1010.44 1008.89 1007.91 1007.29 1007.13 1006.71 1006.67 1006.53 1006.07 1004.25 1003.44 998.23 996.84 996.87 996.62 996.54 996.32 995.72 995.72 996.18
1019.91 1019.49 1018.28 1018.18 1018.58 1018.92 1018.53 1017.21 1016.18 1015.44 1014.45 1014.18 1013.87 1013.40 1013.59 1013.31 1012.93 1012.04 1011.04 1010.09 1009.90 1010.01 1010.00 1010.54 1010.70 1010.30 1009.56 1008.76 1008.39 1007.80 1007.12 1006.74 1006.64 1005.85 1003.77 1001.53 1000.03 999.43 997.66 997.11 996.78 996.33 996.24 996.00 996.37
1020.58 1020.69 1020.30 1019.74 1019.29 1019.23 1018.75 1017.53 1016.52 1015.64 1015.10 1014.49 1013.92 1013.66 1013.81 1013.20 1012.52 1011.65 1010.82 1010.46 1009.81 1009.53 1009.93 1010.28 1010.39 1010.08 1009.48 1008.89 1008.39 1007.55 1007.05 1006.41 1006.06 1005.23 1004.04 1001.67 1000.41 1000.24 998.86 997.89 997.28 996.09 996.08 996.17 996.10
1021.59 1021.60 1020.76 1020.34 1019.52 1019.07 1018.28 1017.43 1016.60 1015.71 1015.47 1014.68 1014.24 1013.68 1013.48 1013.03 1012.28 1011.29 1011.14 1010.80 1010.30 1009.70 1009.93 1010.34 1010.31 1009.88 1009.40 1008.55 1007.66 1006.64 1005.69 1005.47 1005.08 1004.28 1003.04 1002.02 1000.11 1000.07 998.71 997.85 997.14 995.96 995.38 994.96 995.33
1021.67 1021.59 1021.36 1020.20 1019.23 1018.86 1018.00 1017.06 1016.40 1015.78 1014.91 1014.50 1013.96 1013.29 1012.65 1011.77 1011.18 1010.36 1009.98 1009.98 1009.78 1009.45 1009.51 1010.06 1010.20 1009.99 1008.72 1007.62 1007.19 1005.49 1002.97 1003.18 1003.03 1002.69 1001.85 1001.16 1000.14 999.16 998.17 997.53 996.82 995.78 994.87 993.94 994.26
Thickness
5598 5601 5604 5607 5610 5613 5617 5621 5625 5628 5632 5635 5638 5644 5651 5653 5664 5671 5685 5715 5719 5725 5727 5726 5729 5728 5729 5727 5738 5735 5701 5698 5727 5741 5756 5774 5769 5790 5801 5796 5804 5805 5804 5816 5826
5593 5596 5599 5602 5605 5608 5612 5615 5618 5622 5624 5626 5631 5635 5638 5645 5657 5668 5699 5708 5710 5711 5714 5715 5714 5716 5708 5716 5720 5713 5698 5721 5747 5756 5758 5764 5769 5773 5778 5778 5785 5794 5809 5817 5816
5589 5591 5594 5597 5600 5603 5605 5608 5611 5614 5617 5619 5620 5624 5631 5637 5645 5677 5692 5696 5698 5699 5705 5711 5710 5705 5698 5707 5710 5713 5713 5746 5754 5755 5758 5758 5759 5775 5766 5762 5781 5786 5795 5806 5808
5583 5585 5588 5591 5594 5597 5600 5603 5607 5609 5611 5612 5614 5617 5621 5626 5640 5677 5683 5681 5684 5694 5693 5701 5699 5690 5690 5696 5716 5705 5726 5736 5756 5753 5748 5755 5762 5760 5771 5771 5797 5794 5799 5796 5798
5576 5579 5582 5585 5589 5592 5596 5599 5602 5604 5604 5604 5606 5606 5609 5610 5628 5658 5662 5667 5673 5682 5682 5685 5686 5691 5685 5701 5706 5701 5714 5727 5744 5743 5743 5747 5749 5749 5759 5780 5788 5790 5793 5792 5796
5573 5576 5579 5581 5584 5587 5591 5594 5597 5598 5598 5598 5597 5598 5600 5598 5632 5641 5642 5650 5655 5661 5668 5673 5681 5690 5682 5688 5691 5707 5705 5713 5722 5731 5732 5726 5743 5749 5761 5784 5779 5780 5784 5791 5790
5572 5574 5577 5579 5581 5584 5587 5591 5592 5590 5590 5589 5588 5588 5593 5601 5623 5628 5622 5627 5633 5640 5647 5663 5671 5671 5675 5674 5690 5695 5682 5697 5706 5715 5721 5728 5724 5739 5765 5773 5770 5780 5784 5786 5791
5566 5568 5570 5572 5574 5576 5581 5584 5587 5581 5580 5579 5577 5575 5583 5604 5607 5609 5613 5624 5628 5633 5639 5649 5654 5657 5657 5668 5673 5674 5677 5672 5708 5703 5712 5713 5721 5750 5766 5760 5764 5772 5777 5781 5789
5560 5561 5564 5566 5568 5569 5573 5577 5578 5570 5565 5562 5558 5554 5561 5583 5587 5599 5603 5609 5618 5628 5632 5641 5641 5640 5644 5636 5635 5649 5668 5673 5681 5712 5704 5703 5725 5737 5755 5751 5752 5761 5770 5775 5782
5556 5557 5558 5559 5562 5563 5566 5568 5566 5551 5546 5540 5535 5528 5547 5554 5570 5583 5591 5590 5600 5610 5613 5619 5618 5617 5619 5624 5632 5645 5656 5674 5673 5689 5693 5693 5713 5724 5736 5736 5744 5754 5760 5768 5776
5553 5553 5554 5555 5555 5552 5554 5552 5543 5538 5527 5519 5521 5509 5515 5530 5541 5565 5565 5573 5585 5591 5592 5602 5593 5612 5640 5645 5649 5644 5647 5642 5663 5676 5678 5686 5699 5713 5721 5720 5731 5745 5754 5764 5767
5550 5550 5550 5551 5549 5545 5538 5532 5525 5514 5504 5514 5512 5507 5509 5509 5513 5536 5542 5544 5558 5565 5574 5576 5597 5622 5627 5621 5624 5625 5623 5626 5644 5663 5663 5672 5680 5695 5705 5721 5733 5744 5751 5760 5767
5546 5546 5545 5544 5543 5536 5527 5524 5517 5503 5484 5503 5512 5512 5517 5511 5505 5519 5514 5529 5531 5540 5553 5562 5594 5606 5609 5605 5611 5614 5614 5619 5624 5642 5657 5653 5663 5682 5709 5717 5731 5745 5750 5759 5756
5540 5539 5540 5538 5537 5524 5521 5521 5507 5492 5463 5498 5508 5511 5516 5512 5507 5519 5512 5516 5517 5526 5535 5552 5578 5583 5585 5589 5594 5594 5615 5623 5620 5619 5615 5653 5637 5670 5709 5717 5728 5740 5753 5754 5755
5536 5534 5532 5527 5521 5514 5520 5511 5499 5485 5466 5505 5504 5514 5513 5507 5517 5508 5511 5510 5511 5519 5526 5544 5559 5561 5570 5579 5586 5596 5603 5608 5611 5609 5613 5628 5607 5707 5704 5717 5729 5738 5753 5754 5766
5534 5533 5529 5525 5515 5520 5513 5502 5490 5464 5459 5494 5496 5492 5498 5508 5508 5501 5504 5519 5518 5511 5521 5531 5547 5550 5560 5571 5578 5593 5593 5597 5600 5593 5581 5623 5614 5695 5701 5725 5734 5747 5744 5755 5754
5535 5535 5530 5524 5521 5518 5507 5489 5460 5452 5487 5479 5481 5488 5488 5498 5504 5503 5502 5507 5501 5504 5512 5518 5528 5544 5553 5552 5566 5574 5562 5556 5561 5559 5598 5631 5614 5696 5716 5727 5737 5736 5741 5748 5758
5537 5537 5531 5526 5521 5511 5496 5472 5460 5480 5476 5478 5479 5484 5486 5490 5495 5498 5504 5498 5504 5503 5508 5507 5517 5536 5547 5550 5552 5553 5554 5554 5564 5570 5600 5627 5630 5694 5716 5735 5745 5744 5744 5751 5757
5535 5531 5526 5525 5515 5505 5482 5442 5463 5468 5475 5474 5478 5478 5477 5484 5481 5488 5493 5496 5503 5501 5504 5513 5516 5537 5541 5547 5551 5554 5547 5571 5565 5581 5588 5619 5664 5698 5716 5726 5737 5736 5744 5749 5751
5522 5518 5520 5521 5513 5497 5469 5467 5468 5470 5473 5470 5460 5470 5463 5470 5469 5472 5484 5492 5490 5496 5496 5506 5503 5518 5529 5536 5547 5551 5560 5544 5544 5562 5579 5620 5643 5672 5699 5717 5732 5734 5729 5741 5753
5517 5517 5522 5517 5509 5483 5465 5453 5465 5473 5472 5468 5459 5459 5464 5458 5458 5467 5477 5485 5485 5489 5491 5491 5493 5506 5517 5523 5529 5537 5540 5547 5556 5562 5582 5604 5637 5682 5691 5710 5714 5715 5729 5745 5754
5499 5507 5516 5512 5483 5456 5449 5465 5468 5472 5472 5467 5458 5460 5456 5460 5456 5469 5476 5480 5482 5484 5477 5482 5473 5481 5504 5521 5531 5529 5536 5541 5546 5565 5595 5595 5641 5692 5694 5702 5706 5713 5726 5735 5742
5493 5489 5508 5503 5455 5443 5459 5467 5467 5470 5467 5468 5458 5461 5461 5454 5449 5464 5477 5484 5482 5481 5478 5473 5466 5465 5487 5508 5516 5516 5529 5537 5541 5553 5578 5587 5637 5680 5683 5696 5699 5706 5721 5729 5730
5495 5483 5483 5475 5466 5464 5456 5464 5463 5462 5467 5463 5458 5463 5451 5449 5450 5458 5469 5482 5482 5480 5485 5472 5467 5469 5466 5493 5495 5499 5514 5529 5528 5528 5581 5599 5627 5645 5675 5685 5690 5701 5713 5720 5722
5480 5473 5468 5455 5460 5453 5452 5457 5459 5459 5458 5454 5454 5458 5447 5448 5454 5453 5466 5467 5477 5484 5473 5472 5477 5474 5479 5487 5490 5497 5502 5516 5523 5541 5546 5607 5617 5626 5653 5667 5680 5699 5706 5713 5721
5467 5463 5462 5456 5456 5458 5457 5458 5460 5462 5450 5452 5449 5453 5448 5440 5452 5452 5453 5452 5457 5472 5470 5461 5459 5472 5480 5490 5496 5499 5508 5512 5523 5541 5564 5586 5609 5628 5653 5664 5680 5694 5711 5722 5721
5468 5460 5454 5456 5468 5461 5465 5468 5463 5461 5456 5455 5455 5455 5451 5458 5463 5466 5461 5454 5461 5471 5471 5464 5464 5459 5477 5499 5488 5496 5527 5525 5537 5554 5574 5579 5607 5634 5650 5658 5675 5690 5706 5727 5727